TimeCST,TemperatureF,Dew PointF,Humidity,Sea Level PressureIn,VisibilityMPH,Wind Direction,Wind SpeedMPH,Gust SpeedMPH,PrecipitationIn,Events,Conditions,WindDirDegrees,DateUTC
12:56 AM,32.0,32.0,100,30.27,-9999.0,North,5.8,-,N/A,,Overcast,10,2013-01-15 06:56:00
1:56 AM,32.0,32.0,100,30.28,-9999.0,North,5.8,-,N/A,,Overcast,10,2013-01-15 07:56:00
3:56 AM,31.1,31.1,100,30.29,-9999.0,NNE,8.1,-,N/A,,Overcast,20,2013-01-15 09:56:00
4:56 AM,31.1,31.1,100,30.30,-9999.0,NNE,9.2,-,0.00,Rain,Freezing Rain,20,2013-01-15 10:56:00
5:11 AM,30.2,30.2,100,30.26,-9999.0,NNE,9.2,-,0.00,Rain,Freezing Rain,20,2013-01-15 11:11:00
5:56 AM,31.1,31.1,100,30.31,-9999.0,NNE,8.1,-,0.00,,Overcast,20,2013-01-15 11:56:00
6:56 AM,31.1,31.1,100,30.32,-9999.0,NNE,11.5,-,N/A,,Overcast,30,2013-01-15 12:56:00
7:56 AM,31.1,31.1,100,30.31,-9999.0,NE,9.2,-,N/A,,Overcast,40,2013-01-15 13:56:00
8:56 AM,32.0,32.0,100,30.30,-9999.0,NNE,8.1,-,N/A,,Overcast,30,2013-01-15 14:56:00
9:56 AM,32.9,32.9,100,30.28,-9999.0,NE,8.1,-,N/A,,Overcast,40,2013-01-15 15:56:00
10:56 AM,32.9,32.9,100,30.25,-9999.0,NNE,9.2,-,N/A,,Overcast,30,2013-01-15 16:56:00
11:56 AM,34.0,32.9,96,30.20,-9999.0,NNE,9.2,-,N/A,,Overcast,20,2013-01-15 17:56:00
12:56 PM,34.0,32.9,96,30.15,-9999.0,NNE,9.2,-,N/A,,Overcast,30,2013-01-15 18:56:00
1:56 PM,34.0,32.9,96,30.15,-9999.0,NNE,8.1,-,0.00,Rain,Light Rain,30,2013-01-15 19:56:00
2:56 PM,34.0,32.9,96,30.14,-9999.0,NE,10.4,-,0.05,Rain,Light Rain,40,2013-01-15 20:56:00
3:56 PM,32.9,32.9,100,30.17,-9999.0,NNE,9.2,-,0.06,Rain,Heavy Rain,20,2013-01-15 21:56:00
4:44 PM,33.8,33.8,100,30.13,-9999.0,North,10.4,-,0.07,Rain,Rain,360,2013-01-15 22:44:00
4:56 PM,32.9,32.9,100,30.18,-9999.0,North,11.5,-,0.09,Rain,Rain,360,2013-01-15 22:56:00
5:10 PM,33.8,33.8,100,30.14,-9999.0,North,10.4,-,0.00,Rain,Light Rain,10,2013-01-15 23:10:00
5:17 PM,33.8,32.0,93,30.13,-9999.0,NNE,11.5,-,0.01,Rain,Light Rain,20,2013-01-15 23:17:00
5:56 PM,32.9,32.0,96,30.15,-9999.0,NE,10.4,-,0.06,Rain,Rain,50,2013-01-15 23:56:00
6:56 PM,32.9,32.9,100,30.16,-9999.0,North,5.8,-,0.05,Rain,Light Rain,360,2013-01-16 00:56:00
7:25 PM,33.8,33.8,100,30.09,-9999.0,NNE,9.2,-,0.03,Rain,Rain,30,2013-01-16 01:25:00
7:32 PM,33.8,33.8,100,30.07,-9999.0,NE,9.2,-,0.04,Rain,Light Rain,50,2013-01-16 01:32:00
7:56 PM,32.9,32.9,100,30.12,-9999.0,NE,6.9,-,0.05,Rain,Light Rain,50,2013-01-16 01:56:00
8:56 PM,32.9,32.9,100,30.14,-9999.0,Calm,Calm,-,0.05,Rain,Light Rain,0,2013-01-16 02:56:00
9:14 PM,33.8,33.8,100,30.03,-9999.0,East,10.4,-,0.00,Rain,Light Rain,90,2013-01-16 03:14:00
9:56 PM,34.0,32.9,96,30.06,-9999.0,NE,6.9,-,0.02,Rain,Light Rain,40,2013-01-16 03:56:00
10:07 PM,33.8,33.8,100,30.01,-9999.0,ENE,8.1,-,0.00,Rain,Light Rain,60,2013-01-16 04:07:00
10:41 PM,33.8,33.8,100,29.99,-9999.0,Calm,Calm,-,0.00,Rain,Light Rain,0,2013-01-16 04:41:00
10:56 PM,34.0,32.9,96,30.06,-9999.0,North,4.6,-,0.01,Rain,Light Rain,360,2013-01-16 04:56:00
11:56 PM,34.0,34.0,100,30.06,-9999.0,North,6.9,-,0.06,Rain,Rain,10,2013-01-16 05:56:00